Flag for Japan Weather past 2 weeks in Utsunomiya, Japan

Now
83 °F

Warm.


Feels Like: 86 °F
Forecast: 64 / 84 °F
Wind: 8 mph from Southeast

Location: Mito

Current Time: Jul 29, 2014 at 2:39:42 PM

Latest Report: Jul 29, 2014 at 2:00 PM


Visibility: N/A

Pressure: 29.95 "Hg

Humidity: 59%

Dew point: 68 °F

Location of UtsunomiyaLocation

Historic Weather in Utsunomiya — Graph

°F

Utsunomiya temperature yesterday

Maximum temperature yesterday: 86 °F (at 2:00 PM)
Minimum temperature yesterday: 71 °F (at 5:00 AM)
Average temperature yesterday: 77 °F

Past Weeks' High & Low Weather Summary

 TemperatureHumidityPressure
High96 °F (Jul 27, 1:00 PM)98% (Jul 19, 6:00 AM)29.99 "Hg (Jul 19, 6:00 AM)
Low67 °F (Jul 22, 2:00 AM)47% (Jul 28, 2:00 PM)29.56 "Hg (Jul 27, 1:00 PM)
Average77 °F81%29.84 "Hg
* Reported Jul 14 1:00 PM — Jul 29 1:00 PM, Utsunomiya, Weather by CustomWeather, © 2014

Note: Actual official high and low records may vary slightly from our data, if they occured in-between our weather recording intervals... More about our weather records

Advertising

Utsunomiya weather history for previous 24 hours

 ConditionsComfort  
Time TempWeatherWind HumidityBarometerVisibility
1:00 PM
Jul 29
84 °FWarm.7 mph58%29.96 "HgN/A
12:00 PM83 °FWarm.6 mph61%29.97 "HgN/A
11:00 AM82 °FWarm.6 mph58%29.98 "HgN/A
10:00 AM82 °FWarm.6 mph62%29.98 "HgN/A
9:00 AM80 °FPassing clouds.6 mph62%29.98 "Hg6 mi
8:00 AM78 °FWarm.2 mph72%29.98 "HgN/A
7:00 AM72 °FMild.2 mph89%29.97 "HgN/A
6:00 AM69 °FMild.3 mph97%29.94 "HgN/A
5:00 AM68 °FMild.2 mph95%29.92 "HgN/A
4:00 AM70 °FMild.3 mph93%29.91 "HgN/A
3:00 AM70 °FFog.3 mph96%29.89 "Hg5 mi
2:00 AM70 °FMild.3 mph94%29.89 "HgN/A
1:00 AM71 °FMild.2 mph94%29.88 "HgN/A
12:00 AM71 °FMild.3 mph91%29.89 "HgN/A
11:00 PM
Jul 28
71 °FMild.2 mph93%29.88 "HgN/A
10:00 PM71 °FMild.2 mph93%29.88 "HgN/A
9:00 PM72 °FPassing clouds.3 mph90%29.87 "Hg12 mi
8:00 PM74 °FMild.6 mph84%29.85 "HgN/A
7:00 PM74 °FMild.8 mph86%29.83 "HgN/A
6:00 PM78 °FWarm.10 mph69%29.81 "HgN/A
5:00 PM83 °FWarm.6 mph54%29.78 "HgN/A
4:00 PM82 °FWarm.7 mph56%29.78 "HgN/A
3:00 PM83 °FPartly sunny.6 mph57%29.78 "Hg19 mi
2:00 PM86 °FWarm.7 mph47%29.78 "HgN/A
Weather by CustomWeather, © 2014

See weather overviewHow to use our weather pages